ATLAS AGENA D R/B, 4511

Orbit data source: Space-Track

ATLAS AGENA D R/B, 4511 is space debris in GEO originally from a launch on Fri, 19 Jun 1970 UTC launched from the Air Force Eastern Test Range (AFETR). Debris objects in space refer to the collection of defunct objects orbiting the Earth. Examples of debris include non-operational satellites, rocket bodies, and fragments generated from explosions, collisions, or faulty payload assembly.

Not visible in the next 10 days
Identifier
4511, 1970-046B
Orbit
GEO
Country
Flag of USUS
Related business
Manufacturer
LMSC
Mission
Spacecraft
Bus & Motor
AGENA D, Unknown motor
Mass
600 kg wet, 600 kg dry
Launch date (UTC)
1970-06-19 (55 years ago)
Launch vehicle
Unknown
Launch site
Air Force Eastern Test Range (AFETR)
Object type
Payload
Rocket body
Debris
Shape & HBR
Cyl, 3.1 m
Radar Cross Section
8.306 m²

Expand to show TLE details & history
Last TLE update: 14 hours ago

TLE from 14 hours ago
0 ATLAS AGENA D R/B
1 04511U 70046B   25260.89704375  .00000120  00000-0  00000-0 0  9999
2 04511   0.9901  88.9246 0029996 298.7450 332.4881  1.00433304 22820
Epoch: 2025-09-17T21:31Z
TLE epoch observation values (Epoch: 2025-09-17T21:31:44.58Z)
Latitude
-0.99878°
Longitude
39.9978°
Altitude
35,628.643 km
Speed
3.085 km/s
True Right ascension
23h 59m 59s
True Declination
0° 59' 52"
Sunlit
Object was in full shadow at epoch
Visualization orbit readout
Latitude
Unknown
Longitude
Unknown
Altitude
Unknown
Speed
Unknown
Apparent Right ascension
Unknown
Apparent Declination
Unknown
Sunlit
N/A
Visualization observer readout
Local Sidereal Time
04:45:41
Azimuth
Unknown
Elevation
Unknown
Doppler factor
Unknown
Orbital elements
Apogee altitude
35,868.792 km
Perigee altitude
35,616.102 km
Semi-major axis
42,120.584 km
Eccentricity
0.003
Inclination
0.9901°
RAAN
88.9246°
Arg. of periapsis
298.745°
True anomaly
332.32879°
Mean anomaly
332.4881°
Eccentric anomaly
332.4085°
Mean motion
0.25107 °/min
Orbital period
1,433.84 mins
BSTAR
0
Loading maneuver chart data...
Computing Atmospheric mass density...
Loading historical data...
Loading historical data...
Loading historical data...
Loading historical data...
Loading historical data...
Loading historical data...
Loading historical data...
Other satellites on launch #46 in the year 1970 (1970-06-19 UTC)

Documentation

Showing up to 5 results
|